Location: Unspecified
(0.0000°N, 0.0000°E)
Time: 23:48:56
(UTC+00:00)

OV3-3 - Visible Passes

Search period start: 23 September 2017 00:00
Search period end: 03 October 2017 00:00
Orbit: 340 x 2259 km, 81.4° (Epoch: 23 September)

Date Brightness Start Highest point End Pass type
(mag) Time Alt. Az. Time Alt. Az. Time Alt. Az.
23 Sep 8.5 05:10:48 10° SSE 05:14:44 30° E 05:17:37 10° NE visible
23 Sep 11.2 19:00:05 10° NW 19:07:58 24° W 19:17:17 10° SW visible
24 Sep 6.8 05:21:57 10° S 05:26:14 61° E 05:29:16 10° NNE visible
24 Sep 11.6 19:13:27 10° WNW 19:19:48 17° W 19:26:57 10° SW visible
25 Sep 11.9 19:28:51 10° W 19:31:37 11° W 19:34:31 10° WSW visible
27 Sep 10.5 17:51:37 10° NNW 18:01:46 46° W 18:13:56 10° SSW visible
28 Sep 9.5 04:17:33 10° SE 04:18:54 12° ESE 04:20:09 10° E visible
28 Sep 11.0 18:03:52 10° NW 18:13:32 35° W 18:24:44 10° SSW visible
29 Sep 8.3 04:27:35 10° SSE 04:30:28 23° E 04:32:48 10° NE visible
29 Sep 11.5 18:16:33 10° NW 18:25:17 26° W 18:35:07 10° SW visible
30 Sep 6.5 04:38:31 10° S 04:41:53 51° E 04:44:33 10° NNE visible
30 Sep 11.8 18:29:52 10° WNW 18:37:03 18° W 18:44:47 10° SW visible
01 Oct 5.5 04:49:55 10° SSW 04:53:12 60° W 04:55:50 10° N visible
01 Oct 12.1 18:44:50 10° WNW 18:48:45 12° W 18:52:48 10° WSW visible
02 Oct 6.6 05:01:47 10° SW 05:04:24 24° W 05:06:39 10° NNW visible
